Terminal Aerodrome Forecast
Issued by NWS Raleigh/Durham, NC

Home | Current Version | Previous Version | Text Only | Print | Product List | Glossary On
Versions: 1 2 3 4 5 6 7 8 9 10 11 12 13 14 15 16 17 18 19 20 21 22 23 24 25 26 27 28 29 30 31 32 33 34 35 36 37
000
FTUS42 KRAH 280144 AAA
TAFGSO
TAF AMD
KGSO 280144Z 2802/2824 21006KT P6SM SCT080 SCT150 BKN250
     FM280900 22004KT P6SM SCT015 SCT050 OVC200
     FM281200 22005KT 4SM -RA BR SCT007 OVC015
      TEMPO 2815/2818 2SM -RA BR SCT004 OVC007=

USA.gov is the U.S. government's official web portal to all federal, state and local government web resources and services.